Regional Weather Roundup
Issued by NWS State College, PA

Home | Current Version | Previous Version | Text Only | Print | Product List | Glossary On
Versions: 1 2 3 4 5 6 7 8 9 10 11 12 13 14 15 16 17 18 19 20 21 22 23 24 25 26 27 28 29 30 31 32 33 34 35 36 37 38 39 40 41 42 43 44 45 46 47 48 49 50
000
ASUS41 KCTP 041703
RWRCTP

REGIONAL WEATHER ROUNDUP
NATIONAL WEATHER SERVICE STATE COLLEGE PA
1200 PM EST WED MAR 04 2015

Note: "fair" indicates few or no clouds below 12,000 feet with no
significant weather and/or obstructions to visibility.

* = STATION THAT DOES NOT REPORT PRECIPITATION /E.G. RAIN...SNOW...ETC/
    THUNDER OR FOG.

PAZ002>004-007>009-013>016-020>023-029>032-041800-
WESTERN PENNSYLVANIA

CITY           SKY/WX    TMP DP  RH WIND       PRES   REMARKS
ERIE           CLOUDY    33  20  58 W12       29.93F
MEADVILLE      CLOUDY    32  24  72 W7        29.89S
FRANKLIN*      CLOUDY    34  27  75 W7        29.90F
NEW CASTLE     PTSUNNY   35  30  82 SW7       29.93R
BEAVER COUNTY  CLOUDY    32  32 100 W8        29.92R FOG
BUTLER*        CLOUDY    34  30  86 NW8       29.92F
PITTSBURGH INT CLOUDY    34  32  92 W7        29.91S
PITTSBURGH     CLOUDY    34  31  88 NW5       29.89S FOG
INDIANA*       CLOUDY    34  34 100 W9        29.93R
LATROBE        CLOUDY    36  36 100 NW6       29.93S FOG
WASHINGTON CO* CLOUDY    36  34  93 NW7       29.92F
$$

PAZ004>006-010>012-017>019-024>028-033>037-041-042-045-046-049>053-041800-
CENTRAL PENNSYLVANIA

CITY           SKY/WX    TMP DP  RH WIND       PRES   REMARKS
BRADFORD       CLOUDY    32  25  75 W12G17    29.83S
DUBOIS         FOG       32  31  96 W10       29.85S VSB 1/2
CLEARFIELD     CLOUDY    35  31  85 W7        29.86S
JOHNSTOWN      FOG       35  34  96 W14       29.84R VSB<1/4
ALTOONA        CLOUDY    40  36  86 W7        29.83F
STATE COLLEGE  CLOUDY    36  32  87 W6        29.87R
WILLIAMSPORT   CLOUDY    35  32  88 SE5       29.87S FOG
SELINSGROVE    CLOUDY    37  35  92 CALM      29.87F FOG
FT INDIANTOWN  LGT RAIN  37  35  92 CALM      29.87S FOG
CAPITAL CITY   LGT RAIN  40  38  93 CALM      29.89R FOG
HARRISBURG     CLOUDY    39  36  89 W3        29.88S FOG
YORK           CLOUDY    48  39  71 SW7       29.85F
$$

PAZ038>040-043-044-047-048-054-055-060>062-067>071-041800-
EASTERN PENNSYLVANIA

CITY           SKY/WX    TMP DP  RH WIND       PRES   REMARKS
SCRANTON       CLOUDY    39  33  79 SW12      29.86S HAZE
MOUNT POCONO   CLOUDY    37  31  78 W16G32    29.81R
ALLENTOWN      LGT RAIN  37  36  93 SW6       29.88F FOG
QUAKERTOWN*    CLOUDY    39  37  93 CALM      29.88S
READING        LGT RAIN  38  36  92 CALM      29.88S VSB 1
LANCASTER      FOG       35  34  96 E5        29.87F VSB 1
COATESVILLE    CLOUDY    41  41 100 CALM      29.87F FOG
POTTSTOWN      CLOUDY    40  39  97 VRB3      29.89F FOG
BLUE BELL        N/A     41  39  93 CALM      29.88F
DOYLESTOWN     CLOUDY    39  38  96 CALM      29.87F FOG
WILLOW GROVE   NOT AVBL
NORTH PHILA    CLOUDY    43  37  79 W6        29.92S HAZE
PHILADELPHIA   CLOUDY    41  38  89 S7        29.91S FOG
$$



USA.gov is the U.S. government's official web portal to all federal, state and local government web resources and services.